LiveATC.Net - Listen to live air traffic control over the Internet!


ICAO: CYAV  IATA: YAV   Airport: Winnipeg St. Andrews Airport
City: Winnipeg   State/Province: Manitoba
Country: Canada   Continent: North America
CYWG METAR Weather: CYWG 170300Z 31007KT 15SM FEW240 M15/M18 A3027 RMK CI2 SLP271
CYAV Flight Activity (FlightAware)

CYAV CTAF/Center
Feed Status: UP   Listeners: 0
Listen in your browser - HTML5 player (in browser, HTML5)
Listen in your browser - requires Flash (in browser, requires Flash)
Click here to listen with your own player (launches your MP3 player)
CYAV CTAF/Center Audio Archives
FacilityFrequency
St. Andrews Ground121.800
St. Andrews Tower118.500
Winnipeg Center118.000
Winnipeg Center121.000

NOTICE

Unauthorized use prohibited. See LiveATC.net Terms of Service


Find LiveATC Audio Streams


Airport/ARTCC Code

Frequency Search
(e.g., 124.400, 128.75)
Site-wide search
 


Browse LiveATC Feeds
Top 50 LiveATC Feeds
Bad Weather Areas

LiveATC FAQ
Offer a LiveATC Feed
Contact LiveATC.net
Press Inquiries

LiveATC on iPhone
LiveATC on Android

Windows Phone
Windows 8/10

LiveATC Mobile
(Mobile browser)

ATC Audio Archives
Interesting Recordings

LiveATC Forums


Home Page
About LiveATC.net
Make a Donation
Terms of Use
Privacy Policy

Canadian Air Freqs

AIRMETs/SIGMETs

FAA Airport Status
Nat'l Airspace Status
Arrival Demand Charts


Server Software By:
Icecast.org
Liquidsoap